Location: Burbank
(38.7788°N, 114.0429°W)
Time: 19:52:23
(UTC+00:00)

Vanguard 2 - Pass Details

Date: 11 May 2026
Orbit: 553 x 2894 km, 32.9° (Epoch: 6 June)

Event Time Altitude Azimuth Distance (km) Brightness Sun altitude
Rises 13:49:29 0° 269° (W) 6,562 11.6 14.4°
Reaches altitude 10° 13:54:14 10° 267° (W) 5,349 11.3 15.3°
Maximum altitude 14:08:56 63° 191° (SSW) 2,097 9.9 18.1°
Drops below altitude 10° 14:18:00 10° 113° (ESE) 3,436 12.0 19.8°
Sets 14:20:24 0° 110° (ESE) 4,152 12.4 20.3°
